Tracking 31027 objects as of 19-Jul-2025
HD Live streaming from Space Station
objects crossing your sky now

SNIPE-C

Track SNIPE-C now!
10-day predictions
SNIPE-C is classified as:


NORAD ID: 56746
Int'l Code: 2023-072D
Perigee: 458.4 km
Apogee: 466.4 km
Inclination: 97.5 °
Period: 93.7 minutes
Semi major axis: 6833 km
RCS: Unknown
Launch date: May 25, 2023
Source: South Korea (SKOR)
Launch site: Naro Space Center, South Korea (NSC)

Uplink (MHz):
Downlink (MHz): 436950.
Beacon (MHz):
Mode: 4800bps MSK_AX.100_Mode 5
Call sign:
Status: Inactive

Your satellite tracking list
FENGYUN 1C DEB
Track 1 satellite(s)




NASA's NSSDC Master Catalog

Two Line Element Set (TLE):
1 56746U 23072D   25199.80747274  .00017171  00000-0  47745-3 0  9994
2 56746  97.5325  36.8384 0005886  92.8168 267.3750 15.36903722119216
Source of the keplerian elements: AFSPC